Weather History for KP59 - December, 2011

Change the Weather History Date:

Monday, December 12, 2011

  Actual Average Record
Temperature  
Mean Temperature 36 °F -  
Max Temperature 37 °F 31 °F 48 °F (1998)
Min Temperature 34 °F 22 °F 3 °F (2013)
Degree Days  
Heating Degree Days 30    
Moisture  
Dew Point 32 °F    
Average Humidity 86    
Maximum Humidity 96    
Minimum Humidity 76    
Precipitation  
Precipitation 0.00 in - - ()
Sea Level Pressure  
Sea Level Pressure 30.23 in    
Wind  
Wind Speed 5 mph (NE)    
Max Wind Speed 17 mph    
Max Gust Speed -    
Averages and records for this station are not official NWS values.
T = Trace of Precipitation, MM = Missing Value Source: NWS Daily Summary

Daily Weather History Graph

Daily Weather History Graph

Search for Another Location

Airport or City:

Trip Planner

Search our weather history database for the weather conditions in past years. The results will help you decide how hot, cold, wet, or windy it might be!

Date:

Astronomy

Dec. 12, 2011 Rise Set
Actual Time 8:29 AM EST 5:00 PM EST
Civil Twilight 7:54 AM EST 5:36 PM EST
Nautical Twilight 7:14 AM EST 6:15 PM EST
Astronomical Twilight 6:37 AM EST 6:52 PM EST
Moon 7:14 PM EST (12/12) 9:58 AM EST (12/12)
Length of Visible Light 9h 42m
Length of Day
8h 30m
Waning Gibbous, 96% of the Moon is Illuminated
Dec 12
Waning Gibbous
Dec 17
Last Quarter
Dec 24
New
Jan 1
First Quarter
Jan 9
Full

Hourly Weather History & Observations

Time (EST) Temp. Windchill Dew Point Humidity Pressure Visibility Wind Dir Wind Speed Gust Speed Precip Events Conditions
12:51 AM 37.0 °F 32.4 °F 30.0 °F 76% 30.12 in - Variable 5.8 mph - N/A   Unknown
1:51 AM 36.0 °F 31.1 °F 30.0 °F 79% 30.14 in - Variable 5.8 mph - N/A   Unknown
2:51 AM 36.0 °F 32.1 °F 30.0 °F 79% 30.15 in - Variable 4.6 mph - N/A   Unknown
3:51 AM 35.1 °F 31.0 °F 28.9 °F 78% 30.17 in - Variable 4.6 mph - N/A   Unknown
4:51 AM 34.0 °F 29.8 °F 28.9 °F 82% 30.17 in - WSW 4.6 mph - N/A   Unknown
5:51 AM 36.0 °F 33.3 °F 28.9 °F 76% 30.18 in - Variable 3.5 mph - N/A   Unknown
6:51 AM 35.1 °F 29.3 °F 28.9 °F 78% 30.19 in - WSW 6.9 mph - N/A   Unknown
7:51 AM 35.1 °F - 30.0 °F 82% 30.20 in - Calm Calm - N/A   Unknown
8:51 AM 35.1 °F 32.2 °F 30.0 °F 82% 30.21 in - WNW 3.5 mph - N/A   Unknown
9:51 AM 36.0 °F 32.1 °F 30.9 °F 82% 30.22 in - WSW 4.6 mph - N/A   Unknown
10:51 AM 36.0 °F - 32.0 °F 86% 30.23 in - Calm Calm - N/A   Unknown
11:51 AM 37.0 °F 34.5 °F 32.0 °F 82% 30.23 in - WSW 3.5 mph - N/A   Unknown
12:51 PM 37.0 °F - 34.0 °F 89% 30.22 in - Calm Calm - N/A   Unknown
1:51 PM 37.0 °F - 34.0 °F 89% 30.22 in - Calm Calm - N/A   Unknown
2:51 PM 36.0 °F - 34.0 °F 93% 30.23 in - Calm Calm - N/A   Unknown
3:51 PM 35.1 °F - 34.0 °F 96% 30.23 in - Calm Calm - N/A   Unknown
4:51 PM 35.1 °F - 33.1 °F 92% 30.25 in - Calm Calm - N/A   Unknown
5:51 PM 36.0 °F - 34.0 °F 93% 30.26 in - Calm Calm - N/A   Unknown
6:51 PM 35.1 °F - 34.0 °F 96% 30.28 in - Calm Calm - N/A   Unknown
7:51 PM 37.0 °F 28.9 °F 35.1 °F 93% 30.28 in - ENE 12.7 mph - N/A   Unknown
8:51 PM 37.0 °F 27.4 °F 34.0 °F 89% 30.30 in - East 17.3 mph - N/A   Unknown
9:51 PM 36.0 °F 27.5 °F 33.1 °F 89% 30.32 in - ENE 12.7 mph - N/A   Unknown
10:51 PM 35.1 °F 26.4 °F 32.0 °F 89% 30.34 in - ENE 12.7 mph - N/A   Unknown
11:51 PM 35.1 °F 25.9 °F 32.0 °F 89% 30.33 in - East 13.8 mph - N/A   Unknown